Simultaneous Nadir Overpasses (SNOs) Predictions

Prediction of SNOs between AQUA and METOP-B Satellite Orbit:

Table of predicted SNOs for the next 14.0 days since TLE Epoch: 2/8/2014
Index Date (AQUA) Time (AQUA) Lat,Lon (AQUA) SZA (AQUA ) Date (METOP-B) Time (METOP-B) Lat,Lon (METOP-B) SZA (METOP-B ) Distance(km) Time Diff (sec)
1 02/08/2014 17:22:40 73.72, -86.17 88.68 02/08/2014 17:21:57 73.70, -86.12 88.66 3.02 43
2 02/08/2014 18:12:06 -73.74, 81.42 91.31 02/08/2014 18:12:37 -73.74, 81.31 91.32 3.60 31
3 02/11/2014 12:56:58 73.68, -19.66 87.72 02/11/2014 12:56:17 73.68, -19.74 87.74 2.51 41
4 02/11/2014 13:46:25 -73.76, 147.82 92.21 02/11/2014 13:46:56 -73.78, 147.81 92.20 2.41 31
5 02/14/2014 08:31:17 73.71, 46.72 86.81 02/14/2014 08:30:37 73.71, 46.73 86.82 0.48 40
6 02/14/2014 09:20:44 -73.78,-145.80 93.13 02/14/2014 09:21:17 -73.75,-145.83 93.16 2.58 33
7 02/17/2014 04:05:35 73.74, 113.08 85.87 02/17/2014 04:04:57 73.72, 113.18 85.86 3.76 38
8 02/17/2014 04:55:01 -73.75, -79.31 94.13 02/17/2014 04:55:37 -73.77, -79.37 94.12 2.62 36
9 02/19/2014 23:39:50 73.73, 179.54 84.86 02/19/2014 23:39:16 73.72, 179.61 84.86 2.24 34
10 02/20/2014 00:29:17 -73.79, -12.96 95.09 02/20/2014 00:29:56 -73.78, -12.93 95.11 1.85 39




NCC Satellite Simultaneous Nadir Overpasses (SNOs) Prediction Service
